sat.trackr.live / text

‹ back to catalog

STARLINK-36326

NORAD 68519 · 2026-068M

PAYLOAD ACTIVE UNKNOWN

§ Identity

Operator
Country
US
Launch date
2026-03-30
Launch site
AFETR
Launch vehicle
Mass (kg)
RCS (m²)

Purposes: comms

External: N2YO · Heavens-Above · Gunter

§ Orbital elements

Epoch: 2026-05-25T02:50:26.075904Z

Period
93.85 min
Inclination
53.1586°
Eccentricity
0.0000649
Mean motion
15.34400597 rev/d
Perigee alt
462.3 km
Apogee alt
463.1 km
Semi-major
6,840.8 km
B*
8.0271e-4
RAAN
133.0493°
Arg perigee
24.4629°
Mean anomaly
335.6404°
Rev number
866

§ Raw data

STARLINK-363261 68519U 26068M   26145.11835736  .00026842  00000+0  80271-3 0  99952 68519  53.1586 133.0493 0000649  24.4629 335.6404 15.34400597  8661

JSON: /api/v1/satellites/68519 · /tle

For live sub-satellite position, see the globe view (requires WebGL).

§ Visibility from observer

Set your observer location to see the next 7 days of passes ≥ 10°. The values pass through the URL so the page stays shareable.

No JS? Fill the form by hand. The geolocation button needs JavaScript.